Location: Newark
(52.5294°N, 13.6892°E)
Time: 16:14:45
(UTC+00:00)

Envisat - Visible Passes

Search period start: 27 January 2020 00:00
Search period end: 06 February 2020 00:00
Orbit: 764 x 766 km, 98.1° (Epoch: 27 January)

Date Brightness Start Highest point End Pass type
(mag) Time Alt. Az. Time Alt. Az. Time Alt. Az.
27 Jan 5.3 04:57:44 10° NE 05:02:03 27° E 05:06:19 10° SSE visible
27 Jan 3.0 16:17:48 10° SSE 16:22:48 61° ENE 16:27:50 10° N visible
27 Jan 5.4 17:58:12 10° SW 18:02:15 23° W 18:06:19 10° NW visible
28 Jan 6.2 04:22:09 10° NE 04:24:48 14° E 04:27:25 10° ESE visible
28 Jan 3.2 05:59:31 10° NNE 06:04:40 81° ESE 06:09:45 10° SSW visible
28 Jan 4.2 17:20:18 10° S 17:25:09 44° W 17:30:03 10° NNW visible
29 Jan 4.4 05:22:54 10° NNE 05:27:44 42° E 05:32:33 10° SSE visible
29 Jan 3.1 16:43:10 10° SSE 16:48:15 86° WSW 16:53:23 10° NNW visible
29 Jan 6.1 18:25:14 10° WSW 18:28:04 15° W 18:30:56 10° NW visible
30 Jan 5.6 04:46:40 10° NE 04:50:38 22° E 04:54:34 10° SE visible
30 Jan 5.1 17:46:29 10° SSW 17:50:50 28° W 17:55:14 10° NNW visible
31 Jan 6.4 04:11:45 10° ENE 04:13:19 11° E 04:14:53 10° E visible
31 Jan 3.5 05:48:14 10° NNE 05:53:21 67° ESE 05:58:24 10° S visible
31 Jan 3.9 17:08:50 10° S 17:13:48 54° W 17:18:49 10° NNW visible
01 Feb 4.8 05:11:43 10° NNE 05:16:22 35° E 05:21:00 10° SSE visible
01 Feb 3.0 16:31:53 10° SSE 16:36:58 80° ENE 16:42:05 10° NNW visible
01 Feb 5.9 18:13:10 10° SW 18:16:37 18° W 18:20:05 10° NW visible
02 Feb 5.9 04:35:41 10° NE 04:39:13 18° E 04:42:42 10° SE visible
02 Feb 4.8 17:34:50 10° SSW 17:39:27 34° W 17:44:06 10° NNW visible
03 Feb 3.9 05:36:59 10° NNE 05:42:01 55° E 05:47:00 10° S visible
03 Feb 3.5 16:57:25 10° S 17:02:29 66° WSW 17:07:33 10° NNW visible
03 Feb 6.4 18:41:06 10° W 18:42:31 11° W 18:43:56 10° WNW visible
04 Feb 5.2 05:00:34 10° NNE 05:04:59 29° E 05:09:22 10° SSE visible
04 Feb 5.6 18:01:17 10° SW 18:05:11 22° W 18:09:06 10° NW visible
05 Feb 6.2 04:24:49 10° NE 04:27:45 15° E 04:30:40 10° ESE visible
05 Feb 4.4 17:23:17 10° SSW 17:28:05 41° W 17:32:54 10° NNW visible
